[[{"header":{"parameterUnit":"m.s-1","parameterCategory":1,"la1":30.2991,"la2":30.254,"lo1":-89.0895,"lo2":-89.0444,"dy":0.0017,"dx":0.0017,"nx":28,"ny":28,"refTime":"2025-11-16T03:00:00:Z","depth":0,"parameterNumber":2,"parameterNumberName":"U-component_of_WINDS"},"data":[0,0,0,0,0,0,0,0,0,0,0,0,0,0,0,0,0,0,0,0,0,0,0,0,0,0,0,0,0,0,0,0,0,0,0,0,0,0,0,0,0,0,0,0,0,0,0,0,0,0,0,0,0,0,0,0,0,0,1.9005,1.9006,0,1.9104,1.9105,1.9106,1.9069,1.9066,1.9064,1.9062,1.9168,1.9172,1.9177,0,0,0,0,0,0,0,0,0,0,0,0,0,1.8789,1.8793,1.9005,1.9006,1.9007,1.9104,1.9105,1.9106,1.9069,1.9066,1.9063,1.9061,1.9166,1.9172,1.9178,0,0,0,0,0,0,0,0,0,0,0,0,0,1.8885,1.8794,1.9005,1.9,1.9001,1.9103,1.9105,1.9107,1.907,1.9066,1.9063,1.906,1.9164,1.9171,1.9178,1.9293,0,0,1.9201,1.9204,0,0,0,0,0,0,0,0,1.888,1.8893,1.9,1.9001,1.9002,1.907,1.9068,1.9169,1.907,1.9044,1.9062,1.9058,1.9138,1.9148,1.9174,1.9298,1.9302,1.9202,1.9206,1.9209,1.9211,0,0,0,0,0,0,0,1.8873,1.8888,1.9044,1.9001,1.9003,1.8995,1.9005,1.9087,1.9109,1.9046,1.9043,1.9055,1.9138,1.9167,1.9176,1.9304,1.9202,1.9208,1.9213,1.9216,1.9528,1.9532,0,0,0,0,0,0,1.8865,1.8883,1.9041,1.9047,1.8931,1.9002,1.9013,1.9052,1.9108,1.9113,1.9058,1.9053,1.9156,1.9167,1.9179,1.9318,1.9209,1.9216,1.9221,1.9524,1.9529,1.9533,0,0,0,0,0,0,1.8861,1.888,1.9037,1.8965,1.8984,1.9009,1.9053,1.9056,1.9084,1.9117,1.9122,1.9083,1.9153,1.9169,1.9265,1.9321,1.922,1.9226,1.952,1.9525,1.9531,1.9594,0,0,0,0,0,0,1.8855,1.8878,1.8921,1.8966,1.8988,1.9119,1.9057,1.906,1.9096,1.9091,1.9142,1.9147,1.9152,1.9254,1.9272,1.9329,1.9232,1.9515,1.9522,1.9529,1.9587,1.9601,1.9613,0,0,0,0,0,1.8847,1.8935,1.8923,1.8942,1.9041,1.9123,1.9135,1.9138,1.9101,1.9145,1.9166,1.9145,1.9312,1.9264,1.9284,1.9344,1.9511,1.952,1.9528,1.9581,1.9599,1.9613,0,0,0,0,0,0,1.8897,1.8941,1.8928,1.9033,1.9074,1.9116,1.9171,1.9156,1.921,1.9203,1.9206,1.9218,1.9317,1.934,1.9286,1.9459,1.9406,1.9419,1.9439,1.9456,1.9469,1.9461,1.9238,0,0,0,0,0,1.892,1.8981,1.9017,1.9106,1.9127,1.9146,1.9181,1.918,1.9224,1.9241,1.927,1.9314,1.9377,1.9418,1.9477,1.9591,1.9602,1.9642,1.9655,1.9666,1.9677,1.974,1.9759,1.9561,1.9561,1.9561,0,0,1.8969,1.9,1.9039,1.9117,1.9149,1.9213,1.9161,1.9231,1.928,1.9252,1.9344,1.9367,1.9417,1.9522,1.957,1.9545,1.9734,1.9677,1.9685,1.9691,1.9751,1.977,1.9786,1.9567,1.9566,1.9565,0,0,1.909,1.9119,1.9197,1.923,1.9279,1.9291,1.931,1.9355,1.9368,1.946,1.9441,1.95,1.9607,1.9644,1.9677,1.9814,1.9797,1.9833,1.9902,1.9963,1.9979,1.9993,2.0042,2.006,1.9844,1.9844,1.9845,0,1.9144,1.9239,1.924,1.9312,1.9347,1.9325,1.9405,1.9438,1.9504,1.953,1.95,1.9635,1.9667,1.9781,1.9814,1.9842,1.9864,1.9827,1.9976,1.999,2.0003,2.0051,2.0069,1.9849,1.9848,1.9848,1.9847,0,1.9304,1.9371,1.9428,1.9491,1.9534,1.961,1.9623,1.9666,1.9662,1.9678,1.9773,1.981,1.9877,1.9904,1.9901,2.0019,2.0002,1.9975,1.9922,2.0026,2.0071,2.0089,1.9854,1.9853,1.9852,1.9851,0,0,1.9458,1.9522,1.9543,1.9572,1.9624,1.9677,1.9753,1.9817,1.9854,1.9901,1.9966,2.0058,2.0033,2.007,2.0071,2.0125,2.0233,2.0092,2.0093,2.0117,2.0366,2.0386,2.0407,2.0222,2.0225,2.0228,2.0362,0,1.9584,1.9715,1.9718,1.9839,1.9901,1.9882,1.9948,1.9989,2.0006,2.0063,2.0083,2.0148,2.011,2.0132,2.0185,2.0208,2.0283,2.0199,2.0283,2.0286,2.0271,2.043,2.0451,2.0575,2.0379,2.0382,2.0384,0,1.9747,1.9799,1.9925,1.997,1.9996,2.0056,2.0116,2.017,2.0216,2.0225,2.0267,2.0261,2.034,2.0285,2.0396,2.0339,2.0374,2.0391,2.0396,2.0403,2.0341,2.0442,2.0615,2.0634,2.0412,2.0409,2.0407,0,1.9848,1.9949,2.0037,2.0063,2.0117,2.016,2.0185,2.0228,2.0267,2.032,2.0345,2.0408,2.0442,2.0491,2.0503,2.0461,2.0614,2.0559,2.0624,2.0624,2.0657,2.0654,2.0837,2.068,2.0679,2.0679,2.0679,0,1.9987,2.0066,2.0083,2.0138,2.0226,2.023,2.0318,2.034,2.0379,2.0439,2.0427,2.0484,2.0495,2.0555,2.0565,2.0655,2.0671,2.0682,2.0683,2.0682,2.0681,2.0705,2.0697,2.0684,2.0683,2.0682,2.0681,0,2.0113,2.0128,2.0224,2.0268,2.0281,2.0344,2.0382,2.0436,2.0452,2.0529,2.0547,2.0573,2.0643,2.0659,2.0743,2.075,2.0857,2.0851,2.0841,2.084,2.0905,2.0898,2.1109,2.1138,2.0961,2.0963,2.0965,0,2.0201,2.0261,2.0311,2.035,2.0377,2.044,2.0479,2.0487,2.0529,2.0587,2.0634,2.0703,2.0758,2.0871,2.0899,2.0963,2.0958,2.1028,2.0968,2.0966,2.096,2.0956,2.0962,2.1039,2.1041,2.1042,2.1044,0,2.0356,2.036,2.0417,2.0477,2.0524,2.0572,2.0618,2.0651,2.0665,2.0713,2.0784,2.0827,2.0913,2.0981,2.1047,2.1074,2.1062,2.1063,2.1081,2.1081,2.1073,2.1078,2.0872,2.1057,2.1056,2.1055,2.1054,2.1054,2.0465,2.0518,2.0562,2.0626,2.0661,2.0704,2.0757,2.078,2.0839,2.0908,2.091,2.0987,2.1034,2.112,2.1152,2.1214,2.1193,2.122,2.1226,2.1233,2.1239,2.1063,2.1226,2.1226,2.1226,2.1225,2.1225,0,2.0619,2.0647,2.0706,2.077,2.0821,2.0804,2.0854,2.0898,2.0967,2.1011,2.1065,2.1148,2.1215,2.1248,2.1315,2.1359,2.1355,2.1376,2.1373,2.138,2.1254,2.1231,2.1378,2.1378,2.1378,2.1378,2.1378,2.1378,2.0705,2.0793,2.0804,2.091,2.0938,2.1012,2.1043,2.1084,2.1119,2.1211,2.1266,2.1287,2.1328,2.1398,2.146,2.1468,2.1493,2.1517,2.1523,2.1404,2.1389,2.1374,2.1352,2.1523,2.1523,2.1644,2.1645,2.1646]},{"header":{"parameterUnit":"m.s-1","parameterCategory":1,"la1":30.2991,"la2":30.254,"lo1":-89.0895,"lo2":-89.0444,"dy":0.0017,"dx":0.0017,"nx":28,"ny":28,"refTime":"2025-11-16T03:00:00:Z","depth":0,"parameterNumber":3,"parameterNumberName":"V-component_of_WINDS"},"data":[0,0,0,0,0,0,0,0,0,0,0,0,0,0,0,0,0,0,0,0,0,0,0,0,0,0,0,0,0,0,0,0,0,0,0,0,0,0,0,0,0,0,0,0,0,0,0,0,0,0,0,0,0,0,0,0,0,0,0.0152,0.0153,0,0.0218,0.0218,0.0219,0.0209,0.0208,0.0207,0.0206,0.0276,0.0279,0.0282,0,0,0,0,0,0,0,0,0,0,0,0,0,0.0021,0.0024,0.0152,0.0153,0.0154,0.0218,0.0219,0.0219,0.0209,0.0208,0.0206,0.0205,0.0275,0.0278,0.0282,0,0,0,0,0,0,0,0,0,0,0,0,0,0.0082,0.0025,0.0152,0.0156,0.0158,0.0217,0.0219,0.022,0.0209,0.0208,0.0206,0.0205,0.0274,0.0278,0.0282,0.0343,0,0,0.0296,0.0298,0,0,0,0,0,0,0,0,0.0078,0.0087,0.0155,0.0156,0.0158,0.0203,0.0198,0.0261,0.021,0.019,0.0206,0.0204,0.0253,0.0259,0.0275,0.0347,0.035,0.0296,0.0299,0.0301,0.0302,0,0,0,0,0,0,0,0.0074,0.0084,0.0178,0.0156,0.0158,0.0156,0.0163,0.021,0.023,0.0192,0.0191,0.0199,0.0254,0.0271,0.0277,0.0351,0.0296,0.03,0.0303,0.0304,0.0474,0.0476,0,0,0,0,0,0,0.0068,0.008,0.0176,0.018,0.0113,0.016,0.0167,0.019,0.023,0.0234,0.02,0.0198,0.0265,0.0272,0.0279,0.0353,0.0301,0.0305,0.0307,0.0473,0.0475,0.0477,0,0,0,0,0,0,0.0066,0.0077,0.0174,0.013,0.0142,0.0164,0.019,0.0193,0.021,0.0236,0.024,0.0214,0.0264,0.0273,0.0327,0.0356,0.0307,0.0311,0.047,0.0473,0.0476,0.0502,0,0,0,0,0,0,0.0062,0.0076,0.0099,0.0131,0.0145,0.022,0.0192,0.0195,0.0217,0.0215,0.025,0.0255,0.0263,0.0321,0.0331,0.0361,0.0314,0.0468,0.0472,0.0475,0.0499,0.0505,0.0511,0,0,0,0,0,0.0057,0.0104,0.01,0.0112,0.0174,0.0221,0.023,0.0237,0.022,0.0243,0.026,0.0253,0.035,0.0326,0.0338,0.037,0.0466,0.0471,0.0475,0.0496,0.0504,0.0511,0,0,0,0,0,0,0.0077,0.0109,0.0104,0.0163,0.0189,0.022,0.025,0.0246,0.0279,0.0275,0.0284,0.0292,0.0347,0.0363,0.0336,0.043,0.0406,0.0413,0.0418,0.0426,0.0432,0.0428,0.0318,0,0,0,0,0,0.0088,0.0123,0.0149,0.0199,0.0212,0.0228,0.025,0.0253,0.0281,0.0293,0.0313,0.0342,0.0378,0.0403,0.0438,0.05,0.0508,0.0527,0.0534,0.0538,0.0545,0.0579,0.0588,0.0491,0.0491,0.0491,0,0,0.0112,0.0133,0.0155,0.0203,0.0224,0.0261,0.0238,0.0279,0.0307,0.0299,0.0351,0.0367,0.0399,0.0458,0.0484,0.0473,0.0573,0.0544,0.0548,0.0552,0.0584,0.0594,0.0602,0.0494,0.0493,0.0493,0,0,0.0174,0.0194,0.0237,0.0258,0.0289,0.0299,0.0309,0.034,0.035,0.0402,0.0397,0.043,0.0493,0.0517,0.0537,0.0606,0.0601,0.0617,0.065,0.0683,0.0691,0.0698,0.0723,0.0732,0.0623,0.0623,0.0623,0,0.02,0.0255,0.026,0.0301,0.0322,0.0315,0.036,0.038,0.0422,0.0437,0.0423,0.0501,0.0523,0.0586,0.0603,0.0619,0.0632,0.0614,0.0689,0.0696,0.0702,0.0727,0.0736,0.0625,0.0624,0.0624,0.0624,0,0.0286,0.0324,0.0355,0.0394,0.0419,0.0461,0.0473,0.0498,0.0498,0.051,0.0563,0.0588,0.0628,0.0643,0.0644,0.0707,0.0699,0.0687,0.0663,0.0713,0.0737,0.0746,0.0627,0.0627,0.0626,0.0626,0,0,0.0365,0.0404,0.0416,0.0433,0.0466,0.0496,0.0538,0.0576,0.0597,0.0625,0.0662,0.0714,0.0703,0.0726,0.073,0.0758,0.0812,0.0743,0.0744,0.0756,0.0883,0.0892,0.0903,0.0808,0.081,0.0812,0.088,0,0.0432,0.0505,0.0509,0.0576,0.0611,0.0604,0.0641,0.0665,0.0677,0.0709,0.0722,0.076,0.0742,0.0756,0.0784,0.08,0.0838,0.0795,0.0843,0.0845,0.0837,0.0915,0.0926,0.0989,0.0889,0.0891,0.0892,0,0.052,0.0549,0.0619,0.0646,0.0661,0.0693,0.0728,0.0759,0.0786,0.0793,0.0817,0.0816,0.086,0.0833,0.0893,0.0863,0.0883,0.0894,0.0897,0.0903,0.0873,0.0925,0.101,0.102,0.0906,0.0905,0.0904,0,0.0572,0.0629,0.0677,0.0692,0.0725,0.0748,0.0763,0.0789,0.0811,0.0841,0.0856,0.0891,0.0911,0.0938,0.0948,0.0927,0.1008,0.0981,0.1015,0.1015,0.1035,0.1034,0.1126,0.1045,0.1045,0.1044,0.1044,0,0.0646,0.0689,0.0701,0.0732,0.078,0.0784,0.0832,0.0846,0.0868,0.0902,0.0897,0.0929,0.0938,0.0972,0.0979,0.1028,0.1037,0.1044,0.1046,0.1045,0.1045,0.106,0.1056,0.1047,0.1046,0.1046,0.1046,0,0.0714,0.0723,0.0776,0.0802,0.0809,0.0843,0.0866,0.0895,0.0905,0.0948,0.0958,0.0974,0.1013,0.1024,0.1071,0.1076,0.1134,0.1131,0.1125,0.1125,0.1159,0.1156,0.1265,0.128,0.1188,0.1189,0.119,0,0.0761,0.0794,0.0823,0.0844,0.0859,0.0894,0.0916,0.0922,0.0945,0.0978,0.1004,0.1041,0.1072,0.1134,0.1151,0.1187,0.1186,0.1221,0.1191,0.119,0.1188,0.1186,0.119,0.1228,0.1229,0.1229,0.123,0,0.0846,0.0848,0.088,0.0913,0.0939,0.0965,0.0991,0.1008,0.1018,0.1044,0.1083,0.1107,0.1153,0.1191,0.1227,0.1243,0.1239,0.1239,0.1249,0.125,0.1245,0.1249,0.1142,0.1237,0.1236,0.1236,0.1235,0.1235,0.0906,0.0934,0.0959,0.0994,0.1013,0.1036,0.1065,0.1078,0.111,0.1148,0.1149,0.1192,0.1217,0.1265,0.1282,0.1316,0.1306,0.132,0.1324,0.1328,0.1331,0.1238,0.1322,0.1322,0.1322,0.1322,0.1322,0,0.0991,0.1006,0.1037,0.1072,0.11,0.1091,0.1118,0.1142,0.1179,0.1203,0.1233,0.1277,0.1313,0.1332,0.1368,0.1391,0.139,0.1401,0.14,0.1404,0.1338,0.1326,0.1401,0.1401,0.1401,0.1401,0.1401,0.1401,0.1039,0.1087,0.1092,0.1149,0.1164,0.1204,0.1221,0.1243,0.1262,0.1311,0.1341,0.1352,0.1374,0.1411,0.1444,0.1449,0.1463,0.1475,0.1478,0.1417,0.1409,0.1401,0.139,0.1478,0.1478,0.1542,0.1543,0.1543]}]]